Time,TemperatureF,DewpointF,PressureIn,WindDirection,WindDirectionDegrees,WindSpeedMPH,WindSpeedGustMPH,Humidity,HourlyPrecipIn,Conditions,Clouds,dailyrainin,SoftwareType,DateUTC
2013-09-07 00:00:00,76.9,75.4,29.97,SW,226,0.0,0.0,95,0.00,,,0.47,Wunderground v.1.15,2013-09-07 05:00:00,
2013-09-07 00:10:00,76.8,75.6,29.97,SW,225,0.0,0.0,96,0.00,,,0.00,Wunderground v.1.15,2013-09-07 05:10:00,
2013-09-07 00:20:00,76.7,75.5,29.97,SW,226,0.0,0.0,96,0.00,,,0.00,Wunderground v.1.15,2013-09-07 05:20:00,
2013-09-07 00:30:00,76.8,75.6,29.97,SW,225,0.0,0.0,96,0.00,,,0.00,Wunderground v.1.15,2013-09-07 05:30:00,
2013-09-07 00:40:00,76.8,75.6,29.98,SW,225,0.0,0.0,96,0.00,,,0.00,Wunderground v.1.15,2013-09-07 05:40:00,
2013-09-07 00:50:00,76.7,75.5,29.97,SW,225,0.0,0.0,96,0.00,,,0.00,Wunderground v.1.15,2013-09-07 05:50:00,
2013-09-07 01:00:00,76.5,75.3,29.97,SW,225,0.0,0.0,96,0.00,,,0.00,Wunderground v.1.15,2013-09-07 06:00:00,
2013-09-07 01:10:00,76.3,75.1,29.97,SW,225,0.0,0.0,96,0.00,,,0.00,Wunderground v.1.15,2013-09-07 06:10:00,
2013-09-07 01:20:00,76.1,74.9,29.97,SW,225,0.0,0.0,96,0.00,,,0.00,Wunderground v.1.15,2013-09-07 06:20:00,
2013-09-07 01:30:00,76.2,75.3,29.98,SW,225,0.0,0.0,97,0.00,,,0.00,Wunderground v.1.15,2013-09-07 06:30:00,
2013-09-07 01:40:00,76.2,75.3,29.97,SW,226,0.0,0.0,97,0.00,,,0.00,Wunderground v.1.15,2013-09-07 06:40:00,
2013-09-07 01:50:00,76.1,75.2,29.97,SW,226,0.0,0.0,97,0.00,,,0.00,Wunderground v.1.15,2013-09-07 06:50:00,
2013-09-07 02:00:00,76.1,75.2,29.97,SW,225,0.0,0.0,97,0.00,,,0.00,Wunderground v.1.15,2013-09-07 07:00:00,
2013-09-07 02:10:00,76.1,75.2,29.97,SW,225,0.0,0.0,97,0.00,,,0.00,Wunderground v.1.15,2013-09-07 07:10:00,
2013-09-07 02:20:00,76.1,75.5,29.97,SW,225,0.0,0.0,98,0.00,,,0.00,Wunderground v.1.15,2013-09-07 07:20:00,
2013-09-07 02:30:00,76.1,75.5,29.97,SW,225,0.0,0.0,98,0.00,,,0.00,Wunderground v.1.15,2013-09-07 07:30:00,
2013-09-07 02:40:00,76.1,75.5,29.96,SW,225,0.0,0.0,98,0.00,,,0.00,Wunderground v.1.15,2013-09-07 07:40:00,
2013-09-07 02:50:00,76.2,75.6,29.96,SW,225,0.0,0.0,98,0.00,,,0.00,Wunderground v.1.15,2013-09-07 07:50:00,
2013-09-07 03:00:00,76.1,75.5,29.96,SW,225,0.0,0.0,98,0.00,,,0.00,Wunderground v.1.15,2013-09-07 08:00:00,
2013-09-07 03:10:00,75.9,75.3,29.96,SW,225,0.0,0.0,98,0.00,,,0.00,Wunderground v.1.15,2013-09-07 08:10:00,
2013-09-07 03:20:00,76.0,75.4,29.95,SW,225,0.0,0.0,98,0.00,,,0.00,Wunderground v.1.15,2013-09-07 08:20:00,
2013-09-07 03:29:00,75.9,75.3,29.95,SW,225,0.0,0.0,98,0.00,,,0.00,Wunderground v.1.15,2013-09-07 08:29:00,
2013-09-07 03:40:00,76.0,75.4,29.96,SW,225,0.0,0.0,98,0.00,,,0.00,Wunderground v.1.15,2013-09-07 08:40:00,
2013-09-07 03:50:00,76.0,75.4,29.95,SW,225,0.0,0.0,98,0.00,,,0.00,Wunderground v.1.15,2013-09-07 08:50:00,
2013-09-07 04:00:00,75.9,75.3,29.96,SW,225,0.0,0.0,98,0.00,,,0.00,Wunderground v.1.15,2013-09-07 09:00:00,
2013-09-07 04:10:00,75.9,75.3,29.96,SW,225,0.0,0.0,98,0.00,,,0.00,Wunderground v.1.15,2013-09-07 09:10:00,
2013-09-07 04:20:00,76.2,75.9,29.96,SW,225,0.0,0.0,99,0.00,,,0.00,Wunderground v.1.15,2013-09-07 09:20:00,
2013-09-07 04:30:00,76.5,76.2,29.96,SW,225,0.0,0.0,99,0.00,,,0.00,Wunderground v.1.15,2013-09-07 09:30:00,
2013-09-07 04:40:00,76.5,75.9,29.96,SW,225,0.0,0.0,98,0.00,,,0.00,Wunderground v.1.15,2013-09-07 09:40:00,
2013-09-07 04:50:00,76.4,75.8,29.96,SW,224,0.0,0.0,98,0.00,,,0.00,Wunderground v.1.15,2013-09-07 09:50:00,
2013-09-07 05:00:00,76.3,75.7,29.96,SW,224,0.0,0.0,98,0.00,,,0.00,Wunderground v.1.15,2013-09-07 10:00:00,
2013-09-07 05:10:00,76.9,76.6,29.97,East,96,0.0,1.0,99,0.00,,,0.00,Wunderground v.1.15,2013-09-07 10:10:00,
2013-09-07 05:20:00,76.5,75.9,29.97,East,79,1.0,2.0,98,0.00,,,0.00,Wunderground v.1.15,2013-09-07 10:20:00,
2013-09-07 05:30:00,76.4,75.5,29.97,ESE,117,0.0,0.0,97,0.00,,,0.00,Wunderground v.1.15,2013-09-07 10:30:00,
2013-09-07 05:40:00,76.0,75.1,29.97,ESE,118,0.0,0.0,97,0.00,,,0.00,Wunderground v.1.15,2013-09-07 10:40:00,
2013-09-07 05:50:00,75.9,75.0,29.97,ESE,119,0.0,0.0,97,0.00,,,0.00,Wunderground v.1.15,2013-09-07 10:50:00,
2013-09-07 06:00:00,75.4,74.2,29.97,ESE,119,0.0,0.0,96,0.00,,,0.00,Wunderground v.1.15,2013-09-07 11:00:00,
2013-09-07 06:09:00,75.5,74.6,29.97,ESE,119,0.0,0.0,97,0.00,,,0.00,Wunderground v.1.15,2013-09-07 11:09:00,
2013-09-07 06:20:00,75.5,74.6,29.97,ESE,119,0.0,0.0,97,0.00,,,0.00,Wunderground v.1.15,2013-09-07 11:20:00,
2013-09-07 06:30:00,75.3,74.4,29.97,ESE,118,0.0,0.0,97,0.00,,,0.00,Wunderground v.1.15,2013-09-07 11:30:00,
2013-09-07 06:40:00,75.4,74.8,29.98,ESE,118,0.0,6.0,98,0.00,,,0.00,Wunderground v.1.15,2013-09-07 11:40:00,
2013-09-07 06:50:00,75.5,74.6,29.98,ESE,118,0.0,6.0,97,0.00,,,0.00,Wunderground v.1.15,2013-09-07 11:50:00,
2013-09-07 07:00:00,75.3,74.7,29.98,ESE,119,0.0,0.0,98,0.00,,,0.00,Wunderground v.1.15,2013-09-07 12:00:00,
2013-09-07 07:10:00,75.3,74.7,29.99,ESE,119,0.0,0.0,98,0.00,,,0.00,Wunderground v.1.15,2013-09-07 12:10:00,
2013-09-07 07:20:00,75.4,74.8,29.99,ESE,118,0.0,0.0,98,0.00,,,0.00,Wunderground v.1.15,2013-09-07 12:20:00,
2013-09-07 07:30:00,75.4,74.8,29.99,ESE,117,0.0,0.0,98,0.00,,,0.00,Wunderground v.1.15,2013-09-07 12:30:00,
2013-09-07 07:40:00,75.4,74.8,29.99,ESE,118,0.0,0.0,98,0.00,,,0.00,Wunderground v.1.15,2013-09-07 12:40:00,
2013-09-07 07:50:00,75.7,75.1,29.99,ESE,119,0.0,0.0,98,0.00,,,0.00,Wunderground v.1.15,2013-09-07 12:50:00,
2013-09-07 08:00:00,75.8,75.2,29.99,ESE,118,0.0,0.0,98,0.00,,,0.00,Wunderground v.1.15,2013-09-07 13:00:00,
2013-09-07 08:09:00,76.2,75.9,30.00,ESE,117,0.0,0.0,99,0.00,,,0.00,Wunderground v.1.15,2013-09-07 13:09:00,
2013-09-07 08:20:00,76.6,76.3,29.99,ESE,118,0.0,0.0,99,0.00,,,0.00,Wunderground v.1.15,2013-09-07 13:20:00,
2013-09-07 08:29:00,77.1,76.5,30.00,ESE,119,0.0,0.0,98,0.00,,,0.00,Wunderground v.1.15,2013-09-07 13:29:00,
2013-09-07 08:40:00,79.4,79.1,30.00,ESE,118,0.0,0.0,99,0.00,,,0.00,Wunderground v.1.15,2013-09-07 13:40:00,
2013-09-07 08:50:00,80.3,77.8,30.00,ESE,118,0.0,0.0,92,0.00,,,0.00,Wunderground v.1.15,2013-09-07 13:50:00,
2013-09-07 09:00:00,80.5,77.0,30.00,ESE,105,0.0,3.0,89,0.00,,,0.00,Wunderground v.1.15,2013-09-07 14:00:00,
2013-09-07 09:10:00,79.7,76.5,30.00,ENE,68,1.0,1.0,90,0.00,,,0.01,Wunderground v.1.15,2013-09-07 14:10:00,
2013-09-07 09:20:00,78.6,75.8,30.00,East,92,1.0,1.0,91,0.00,,,0.01,Wunderground v.1.15,2013-09-07 14:20:00,
2013-09-07 09:30:00,78.4,75.9,30.01,East,91,0.0,0.0,92,0.00,,,0.01,Wunderground v.1.15,2013-09-07 14:30:00,
2013-09-07 09:40:00,77.7,75.2,30.01,East,82,0.0,1.0,92,0.00,,,0.01,Wunderground v.1.15,2013-09-07 14:40:00,
2013-09-07 09:50:00,76.8,74.6,30.02,ENE,64,0.0,1.0,93,0.44,,,0.06,Wunderground v.1.15,2013-09-07 14:50:00,
2013-09-07 10:00:00,76.0,74.1,30.02,NE,46,0.0,0.0,94,0.34,,,0.14,Wunderground v.1.15,2013-09-07 15:00:00,
2013-09-07 10:10:00,75.9,74.4,30.02,NE,44,0.0,0.0,95,0.61,,,0.19,Wunderground v.1.15,2013-09-07 15:10:00,
2013-09-07 10:20:00,76.2,75.0,30.02,NE,44,0.0,0.0,96,0.22,,,0.24,Wunderground v.1.15,2013-09-07 15:20:00,
2013-09-07 10:30:00,76.7,75.8,30.03,NE,56,0.0,0.0,97,0.08,,,0.25,Wunderground v.1.15,2013-09-07 15:30:00,
2013-09-07 10:40:00,76.9,76.0,30.04,ESE,114,0.0,3.0,97,0.18,,,0.27,Wunderground v.1.15,2013-09-07 15:40:00,
2013-09-07 10:50:00,77.3,76.4,30.03,ESE,117,0.0,3.0,97,0.07,,,0.28,Wunderground v.1.15,2013-09-07 15:50:00,
2013-09-07 11:00:00,77.4,76.5,30.04,ESE,108,0.0,1.0,97,0.00,,,0.28,Wunderground v.1.15,2013-09-07 16:00:00,
2013-09-07 11:10:00,77.1,76.2,30.04,SSE,151,1.0,1.0,97,0.00,,,0.28,Wunderground v.1.15,2013-09-07 16:10:00,
2013-09-07 11:20:00,76.9,75.7,30.04,ESE,110,0.0,0.0,96,0.00,,,0.28,Wunderground v.1.15,2013-09-07 16:20:00,
2013-09-07 11:30:00,77.4,76.5,30.04,East,83,0.0,0.0,97,0.00,,,0.28,Wunderground v.1.15,2013-09-07 16:30:00,
2013-09-07 11:40:00,76.6,75.4,30.03,WSW,245,0.0,2.0,96,0.00,,,0.28,Wunderground v.1.15,2013-09-07 16:40:00,
2013-09-07 11:50:00,77.2,76.0,30.02,WSW,240,0.0,2.0,96,0.00,,,0.28,Wunderground v.1.15,2013-09-07 16:50:00,
2013-09-07 12:00:00,77.1,75.9,30.03,ESE,110,0.0,0.0,96,0.00,,,0.28,Wunderground v.1.15,2013-09-07 17:00:00,
2013-09-07 12:10:00,77.8,76.6,30.03,East,87,0.0,0.0,96,0.00,,,0.28,Wunderground v.1.15,2013-09-07 17:10:00,
2013-09-07 12:20:00,78.3,76.7,30.02,ESE,105,0.0,0.0,95,0.00,,,0.28,Wunderground v.1.15,2013-09-07 17:20:00,
2013-09-07 12:30:00,79.1,77.5,30.03,East,89,0.0,0.0,95,0.00,,,0.28,Wunderground v.1.15,2013-09-07 17:30:00,
2013-09-07 12:40:00,79.9,77.4,30.02,NW,313,0.0,4.0,92,0.00,,,0.28,Wunderground v.1.15,2013-09-07 17:40:00,
2013-09-07 12:50:00,81.8,77.9,30.02,NW,314,0.0,4.0,88,0.00,,,0.28,Wunderground v.1.15,2013-09-07 17:50:00,
2013-09-07 13:00:00,83.0,78.7,30.02,NNW,337,0.0,0.0,87,0.00,,,0.28,Wunderground v.1.15,2013-09-07 18:00:00,
2013-09-07 13:10:00,82.7,78.4,30.02,ENE,68,0.0,0.0,87,0.00,,,0.28,Wunderground v.1.15,2013-09-07 18:10:00,
2013-09-07 13:20:00,82.2,78.6,30.01,ENE,60,1.0,1.0,89,0.00,,,0.28,Wunderground v.1.15,2013-09-07 18:20:00,
2013-09-07 13:30:00,83.0,78.4,30.01,WNW,303,0.0,0.0,86,0.00,,,0.28,Wunderground v.1.15,2013-09-07 18:30:00,
2013-09-07 13:40:00,83.6,78.2,30.00,ENE,70,0.0,2.0,84,0.00,,,0.28,Wunderground v.1.15,2013-09-07 18:40:00,
2013-09-07 13:50:00,84.3,78.9,29.99,South,179,0.0,2.0,84,0.00,,,0.28,Wunderground v.1.15,2013-09-07 18:50:00,
2013-09-07 14:00:00,84.7,77.8,29.99,SE,124,1.0,2.0,80,0.00,,,0.28,Wunderground v.1.15,2013-09-07 19:00:00,
2013-09-07 14:10:00,84.1,77.6,29.99,ESE,121,1.0,1.0,81,0.00,,,0.28,Wunderground v.1.15,2013-09-07 19:10:00,
2013-09-07 14:20:00,83.8,78.1,29.98,ESE,109,1.0,1.0,83,0.00,,,0.28,Wunderground v.1.15,2013-09-07 19:20:00,
2013-09-07 14:30:00,83.6,77.5,29.98,ESE,110,1.0,2.0,82,0.00,,,0.28,Wunderground v.1.15,2013-09-07 19:30:00,
2013-09-07 14:40:00,83.9,77.1,29.97,ESE,112,2.0,5.0,80,0.00,,,0.28,Wunderground v.1.15,2013-09-07 19:40:00,
2013-09-07 14:50:00,84.2,77.4,29.97,SSE,149,2.0,3.0,80,0.00,,,0.28,Wunderground v.1.15,2013-09-07 19:50:00,
2013-09-07 15:00:00,84.2,77.0,29.96,SE,141,3.0,3.0,79,0.00,,,0.28,Wunderground v.1.15,2013-09-07 20:00:00,
2013-09-07 15:10:00,84.3,77.1,29.96,East,82,2.0,2.0,79,0.00,,,0.28,Wunderground v.1.15,2013-09-07 20:10:00,
2013-09-07 15:20:00,85.0,77.4,29.96,ESE,102,2.0,2.0,78,0.00,,,0.28,Wunderground v.1.15,2013-09-07 20:20:00,
2013-09-07 15:30:00,86.2,78.5,29.96,SW,233,1.0,1.0,78,0.00,,,0.28,Wunderground v.1.15,2013-09-07 20:30:00,
2013-09-07 15:40:00,87.2,78.3,29.95,NE,53,1.0,6.0,75,0.00,,,0.28,Wunderground v.1.15,2013-09-07 20:40:00,
2013-09-07 15:50:00,86.9,78.0,29.94,NE,37,1.0,6.0,75,0.00,,,0.28,Wunderground v.1.15,2013-09-07 20:50:00,
2013-09-07 16:00:00,86.7,77.8,29.95,ESE,106,2.0,2.0,75,0.00,,,0.28,Wunderground v.1.15,2013-09-07 21:00:00,
2013-09-07 16:10:00,87.3,78.8,29.95,ESE,108,1.0,1.0,76,0.00,,,0.28,Wunderground v.1.15,2013-09-07 21:10:00,
2013-09-07 16:20:00,87.7,78.4,29.95,ESE,116,1.0,2.0,74,0.00,,,0.28,Wunderground v.1.15,2013-09-07 21:20:00,
2013-09-07 16:30:00,86.9,78.0,29.96,ENE,70,3.0,3.0,75,0.00,,,0.28,Wunderground v.1.15,2013-09-07 21:30:00,
2013-09-07 16:40:00,87.5,79.0,29.95,ENE,58,2.0,7.0,76,0.00,,,0.28,Wunderground v.1.15,2013-09-07 21:40:00,
2013-09-07 16:50:00,87.2,78.7,29.96,ESE,108,3.0,7.0,76,0.00,,,0.28,Wunderground v.1.15,2013-09-07 21:50:00,
2013-09-07 17:00:00,87.2,78.7,29.94,SSW,200,2.0,2.0,76,0.00,,,0.28,Wunderground v.1.15,2013-09-07 22:00:00,
2013-09-07 17:10:00,87.4,78.5,29.94,ESE,119,2.0,4.0,75,0.00,,,0.28,Wunderground v.1.15,2013-09-07 22:10:00,
2013-09-07 17:20:00,87.5,78.2,29.94,SW,233,2.0,2.0,74,0.00,,,0.28,Wunderground v.1.15,2013-09-07 22:20:00,
2013-09-07 17:30:00,86.9,77.6,29.94,ESE,102,1.0,2.0,74,0.00,,,0.28,Wunderground v.1.15,2013-09-07 22:30:00,
2013-09-07 17:40:00,85.5,77.1,29.94,ESE,108,2.0,2.0,76,0.00,,,0.28,Wunderground v.1.15,2013-09-07 22:40:00,
2013-09-07 17:50:00,85.6,77.2,29.95,East,88,1.0,7.0,76,0.00,,,0.28,Wunderground v.1.15,2013-09-07 22:50:00,
2013-09-07 18:00:00,85.3,76.9,29.95,ESE,110,2.0,2.0,76,0.00,,,0.28,Wunderground v.1.15,2013-09-07 23:00:00,
2013-09-07 18:10:00,84.8,77.2,29.94,ESE,113,1.0,1.0,78,0.00,,,0.28,Wunderground v.1.15,2013-09-07 23:10:00,
2013-09-07 18:20:00,84.3,77.1,29.94,East,89,1.0,2.0,79,0.00,,,0.28,Wunderground v.1.15,2013-09-07 23:20:00,
2013-09-07 18:30:00,83.9,77.1,29.95,ENE,77,1.0,1.0,80,0.00,,,0.28,Wunderground v.1.15,2013-09-07 23:30:00,
2013-09-07 18:40:00,83.0,76.9,29.95,East,100,0.0,8.0,82,0.00,,,0.28,Wunderground v.1.15,2013-09-07 23:40:00,
2013-09-07 18:50:00,82.3,76.6,29.95,East,90,0.0,8.0,83,0.00,,,0.28,Wunderground v.1.15,2013-09-07 23:50:00,
2013-09-07 19:00:00,81.6,76.3,29.94,ENE,75,0.0,0.0,84,0.00,,,0.28,Wunderground v.1.15,2013-09-08 00:00:00,
2013-09-07 19:10:00,81.1,76.2,29.95,East,91,0.0,0.0,85,0.00,,,0.28,Wunderground v.1.15,2013-09-08 00:10:00,
2013-09-07 19:20:00,80.7,76.1,29.95,ESE,103,0.0,0.0,86,0.00,,,0.28,Wunderground v.1.15,2013-09-08 00:20:00,
2013-09-07 19:30:00,80.1,76.2,29.95,East,101,0.0,0.0,88,0.00,,,0.28,Wunderground v.1.15,2013-09-08 00:30:00,
2013-09-07 19:40:00,79.5,76.0,29.95,South,172,0.0,5.0,89,0.00,,,0.28,Wunderground v.1.15,2013-09-08 00:40:00,
2013-09-07 19:50:00,79.1,75.9,29.95,SSE,161,0.0,5.0,90,0.00,,,0.28,Wunderground v.1.15,2013-09-08 00:50:00,
2013-09-07 20:00:00,78.8,75.9,29.95,WSW,252,0.0,0.0,91,0.00,,,0.28,Wunderground v.1.15,2013-09-08 01:00:00,
2013-09-07 20:09:00,78.6,75.8,29.96,WSW,252,0.0,0.0,91,0.00,,,0.28,Wunderground v.1.15,2013-09-08 01:09:00,
2013-09-07 20:20:00,78.5,76.0,29.96,WSW,252,0.0,0.0,92,0.00,,,0.28,Wunderground v.1.15,2013-09-08 01:20:00,
2013-09-07 20:30:00,78.6,76.4,29.96,WSW,252,0.0,0.0,93,0.00,,,0.28,Wunderground v.1.15,2013-09-08 01:30:00,
2013-09-07 20:39:00,78.6,76.4,29.96,WSW,251,0.0,3.0,93,0.00,,,0.28,Wunderground v.1.15,2013-09-08 01:39:00,
2013-09-07 20:50:00,78.7,76.5,29.96,ESE,107,0.0,3.0,93,0.00,,,0.28,Wunderground v.1.15,2013-09-08 01:50:00,
2013-09-07 21:00:00,78.9,76.4,29.96,SSE,152,0.0,0.0,92,0.00,,,0.28,Wunderground v.1.15,2013-09-08 02:00:00,
2013-09-07 21:09:00,79.1,76.2,29.96,ESE,118,1.0,1.0,91,0.00,,,0.28,Wunderground v.1.15,2013-09-08 02:09:00,
2013-09-07 21:19:00,79.1,75.9,29.96,South,184,0.0,0.0,90,0.00,,,0.28,Wunderground v.1.15,2013-09-08 02:19:00,
2013-09-07 21:29:00,78.9,76.0,29.96,South,183,0.0,0.0,91,0.00,,,0.28,Wunderground v.1.15,2013-09-08 02:29:00,
2013-09-07 21:39:00,78.6,75.8,29.96,South,185,0.0,0.0,91,0.00,,,0.28,Wunderground v.1.15,2013-09-08 02:39:00,
2013-09-07 21:50:00,78.2,75.7,29.95,South,177,0.0,0.0,92,0.00,,,0.28,Wunderground v.1.15,2013-09-08 02:50:00,
2013-09-07 22:00:00,78.1,75.6,29.95,SSE,158,0.0,0.0,92,0.00,,,0.28,Wunderground v.1.15,2013-09-08 03:00:00,
2013-09-07 22:10:00,77.9,75.4,29.96,SSE,158,0.0,0.0,92,0.00,,,0.28,Wunderground v.1.15,2013-09-08 03:10:00,
2013-09-07 22:20:00,77.8,75.6,29.95,ESE,119,0.0,0.0,93,0.00,,,0.28,Wunderground v.1.15,2013-09-08 03:20:00,
2013-09-07 22:30:00,77.7,75.5,29.95,ESE,119,0.0,0.0,93,0.00,,,0.28,Wunderground v.1.15,2013-09-08 03:30:00,
2013-09-07 22:40:00,77.7,75.5,29.95,ESE,118,0.0,5.0,93,0.00,,,0.28,Wunderground v.1.15,2013-09-08 03:40:00,
2013-09-07 22:50:00,77.5,75.3,29.96,ESE,119,0.0,5.0,93,0.00,,,0.28,Wunderground v.1.15,2013-09-08 03:50:00,
2013-09-07 23:00:00,77.5,75.3,29.96,SW,236,0.0,0.0,93,0.00,,,0.28,Wunderground v.1.15,2013-09-08 04:00:00,
2013-09-07 23:10:00,77.4,75.2,29.96,SW,236,0.0,0.0,93,0.00,,,0.28,Wunderground v.1.15,2013-09-08 04:10:00,
2013-09-07 23:20:00,77.3,75.1,29.95,WSW,238,0.0,0.0,93,0.00,,,0.28,Wunderground v.1.15,2013-09-08 04:20:00,
2013-09-07 23:30:00,77.2,75.3,29.95,SW,236,0.0,0.0,94,0.00,,,0.28,Wunderground v.1.15,2013-09-08 04:30:00,
2013-09-07 23:40:00,77.0,75.1,29.95,WSW,238,0.0,1.0,94,0.00,,,0.28,Wunderground v.1.15,2013-09-08 04:40:00,
2013-09-07 23:50:00,76.7,74.8,29.95,SW,236,0.0,1.0,94,0.00,,,0.28,Wunderground v.1.15,2013-09-08 04:50:00,